Time,TemperatureF,DewpointF,PressureIn,WindDirection,WindDirectionDegrees,WindSpeedMPH,WindSpeedGustMPH,Humidity,HourlyPrecipIn,Conditions,Clouds,dailyrainin,SoftwareType,DateUTC
2013-09-13 00:01:00,58.0,50.5,30.07,NNW,337,6.0,8.0,76,0.00,,,0.00,Wunderground v.1.15,2013-09-13 05:01:00,
2013-09-13 00:06:00,57.8,50.6,30.07,North,355,6.0,10.0,77,0.00,,,0.00,Wunderground v.1.15,2013-09-13 05:06:00,
2013-09-13 00:11:00,57.6,50.4,30.07,North,349,6.0,6.0,77,0.00,,,0.00,Wunderground v.1.15,2013-09-13 05:11:00,
2013-09-13 00:16:00,57.3,50.5,30.08,North,355,5.0,7.0,78,0.00,,,0.00,Wunderground v.1.15,2013-09-13 05:16:00,
2013-09-13 00:21:00,57.0,50.5,30.08,North,360,4.0,7.0,79,0.00,,,0.00,Wunderground v.1.15,2013-09-13 05:21:00,
2013-09-13 00:26:00,57.0,50.5,30.08,NNE,22,5.0,9.0,79,0.00,,,0.00,Wunderground v.1.15,2013-09-13 05:26:00,
2013-09-13 00:31:00,56.9,50.5,30.08,NNE,30,6.0,9.0,79,0.00,,,0.00,Wunderground v.1.15,2013-09-13 05:31:00,
2013-09-13 00:36:00,56.7,50.6,30.08,North,355,7.0,9.0,80,0.00,,,0.00,Wunderground v.1.15,2013-09-13 05:36:00,
2013-09-13 00:41:00,56.5,50.4,30.08,North,5,6.0,8.0,80,0.00,,,0.00,Wunderground v.1.15,2013-09-13 05:41:00,
2013-09-13 00:46:00,56.3,50.2,30.08,NNE,20,6.0,8.0,80,0.00,,,0.00,Wunderground v.1.15,2013-09-13 05:46:00,
2013-09-13 00:51:00,56.2,50.4,30.08,North,355,5.0,10.0,81,0.00,,,0.00,Wunderground v.1.15,2013-09-13 05:51:00,
2013-09-13 00:56:00,56.0,50.3,30.09,North,360,5.0,10.0,81,0.00,,,0.00,Wunderground v.1.15,2013-09-13 05:56:00,
2013-09-13 01:01:00,55.8,50.1,30.09,North,355,5.0,6.0,81,0.00,,,0.00,Wunderground v.1.15,2013-09-13 06:01:00,
2013-09-13 01:06:00,55.7,50.3,30.09,North,355,5.0,8.0,82,0.00,,,0.00,Wunderground v.1.15,2013-09-13 06:06:00,
2013-09-13 01:11:00,55.5,50.1,30.09,North,5,5.0,9.0,82,0.00,,,0.00,Wunderground v.1.15,2013-09-13 06:11:00,
2013-09-13 01:16:00,55.4,50.0,30.09,North,5,6.0,10.0,82,0.00,,,0.00,Wunderground v.1.15,2013-09-13 06:16:00,
2013-09-13 01:21:00,55.4,50.0,30.09,North,5,6.0,9.0,82,0.00,,,0.00,Wunderground v.1.15,2013-09-13 06:21:00,
2013-09-13 01:26:00,55.4,50.0,30.09,North,9,6.0,9.0,82,0.00,,,0.00,Wunderground v.1.15,2013-09-13 06:26:00,
2013-09-13 01:31:00,55.3,50.2,30.09,NNE,16,6.0,9.0,83,0.00,,,0.00,Wunderground v.1.15,2013-09-13 06:31:00,
2013-09-13 01:36:00,55.1,50.0,30.09,North,355,6.0,9.0,83,0.00,,,0.00,Wunderground v.1.15,2013-09-13 06:36:00,
2013-09-13 01:41:00,55.0,49.9,30.09,North,355,5.0,9.0,83,0.00,,,0.00,Wunderground v.1.15,2013-09-13 06:41:00,
2013-09-13 01:46:00,54.9,50.2,30.09,NNE,18,5.0,9.0,84,0.00,,,0.00,Wunderground v.1.15,2013-09-13 06:46:00,
2013-09-13 01:51:00,54.9,50.2,30.09,North,350,6.0,9.0,84,0.00,,,0.00,Wunderground v.1.15,2013-09-13 06:51:00,
2013-09-13 01:56:00,54.9,50.2,30.09,North,10,6.0,9.0,84,0.00,,,0.00,Wunderground v.1.15,2013-09-13 06:56:00,
2013-09-13 02:01:00,54.8,50.1,30.09,North,5,5.0,9.0,84,0.00,,,0.00,Wunderground v.1.15,2013-09-13 07:01:00,
2013-09-13 02:07:00,54.8,50.4,30.10,North,5,5.0,9.0,85,0.00,,,0.00,Wunderground v.1.15,2013-09-13 07:07:00,
2013-09-13 02:11:00,54.8,50.4,30.10,NNE,19,5.0,8.0,85,0.00,,,0.00,Wunderground v.1.15,2013-09-13 07:11:00,
2013-09-13 02:17:00,54.9,50.2,30.10,NNE,18,6.0,9.0,84,0.00,,,0.00,Wunderground v.1.15,2013-09-13 07:17:00,
2013-09-13 02:22:00,55.0,49.9,30.10,NNE,19,6.0,8.0,83,0.00,,,0.00,Wunderground v.1.15,2013-09-13 07:22:00,
2013-09-13 02:27:00,55.0,49.9,30.10,North,9,5.0,8.0,83,0.00,,,0.00,Wunderground v.1.15,2013-09-13 07:27:00,
2013-09-13 02:32:00,55.0,49.9,30.10,NNE,17,6.0,10.0,83,0.00,,,0.00,Wunderground v.1.15,2013-09-13 07:32:00,
2013-09-13 02:37:00,54.9,49.8,30.10,NNE,15,7.0,10.0,83,0.00,,,0.00,Wunderground v.1.15,2013-09-13 07:37:00,
2013-09-13 02:42:00,54.9,49.5,30.10,North,355,7.0,9.0,82,0.00,,,0.00,Wunderground v.1.15,2013-09-13 07:42:00,
2013-09-13 02:47:00,54.9,49.5,30.11,NNE,15,7.0,11.0,82,0.00,,,0.00,Wunderground v.1.15,2013-09-13 07:47:00,
2013-09-13 02:52:00,54.9,49.2,30.10,North,11,7.0,11.0,81,0.00,,,0.00,Wunderground v.1.15,2013-09-13 07:52:00,
2013-09-13 02:57:00,54.8,49.1,30.11,NNE,14,7.0,13.0,81,0.00,,,0.00,Wunderground v.1.15,2013-09-13 07:57:00,
2013-09-13 03:02:00,54.6,48.9,30.11,NNE,27,7.0,13.0,81,0.00,,,0.00,Wunderground v.1.15,2013-09-13 08:02:00,
2013-09-13 03:07:00,54.6,48.9,30.11,NNE,26,8.0,14.0,81,0.00,,,0.00,Wunderground v.1.15,2013-09-13 08:07:00,
2013-09-13 03:12:00,54.6,48.9,30.10,NNE,32,8.0,16.0,81,0.00,,,0.00,Wunderground v.1.15,2013-09-13 08:12:00,
2013-09-13 03:17:00,54.6,48.9,30.10,NNE,27,9.0,16.0,81,0.00,,,0.00,Wunderground v.1.15,2013-09-13 08:17:00,
2013-09-13 03:22:00,54.5,48.5,30.10,NNE,27,8.0,16.0,80,0.00,,,0.00,Wunderground v.1.15,2013-09-13 08:22:00,
2013-09-13 03:27:00,54.5,48.5,30.10,NNE,33,8.0,16.0,80,0.00,,,0.00,Wunderground v.1.15,2013-09-13 08:27:00,
2013-09-13 03:32:00,54.4,48.4,30.11,NNE,31,9.0,16.0,80,0.00,,,0.00,Wunderground v.1.15,2013-09-13 08:32:00,
2013-09-13 03:37:00,54.4,48.4,30.11,NNE,26,8.0,16.0,80,0.00,,,0.00,Wunderground v.1.15,2013-09-13 08:37:00,
2013-09-13 03:42:00,54.3,48.3,30.11,NNE,25,7.0,16.0,80,0.00,,,0.00,Wunderground v.1.15,2013-09-13 08:42:00,
2013-09-13 03:47:00,54.1,48.1,30.11,NNE,23,7.0,16.0,80,0.00,,,0.00,Wunderground v.1.15,2013-09-13 08:47:00,
2013-09-13 03:52:00,54.0,48.0,30.11,NNE,26,7.0,16.0,80,0.00,,,0.00,Wunderground v.1.15,2013-09-13 08:52:00,
2013-09-13 03:57:00,53.7,48.0,30.12,NNE,19,7.0,16.0,81,0.00,,,0.00,Wunderground v.1.15,2013-09-13 08:57:00,
2013-09-13 04:02:00,53.5,47.8,30.12,North,5,6.0,16.0,81,0.00,,,0.00,Wunderground v.1.15,2013-09-13 09:02:00,
2013-09-13 04:07:00,53.2,47.8,30.12,North,5,6.0,19.0,82,0.00,,,0.00,Wunderground v.1.15,2013-09-13 09:07:00,
2013-09-13 04:12:00,53.1,47.7,30.12,North,5,5.0,19.0,82,0.00,,,0.00,Wunderground v.1.15,2013-09-13 09:12:00,
2013-09-13 04:17:00,52.8,47.5,30.12,North,5,5.0,19.0,82,0.00,,,0.00,Wunderground v.1.15,2013-09-13 09:17:00,
2013-09-13 04:22:00,52.4,47.4,30.12,North,5,5.0,19.0,83,0.00,,,0.00,Wunderground v.1.15,2013-09-13 09:22:00,
2013-09-13 04:27:00,52.1,47.1,30.13,North,5,4.0,19.0,83,0.00,,,0.00,Wunderground v.1.15,2013-09-13 09:27:00,
2013-09-13 04:32:00,51.8,47.1,30.13,North,360,4.0,19.0,84,0.00,,,0.00,Wunderground v.1.15,2013-09-13 09:32:00,
2013-09-13 04:37:00,51.5,47.1,30.13,North,349,4.0,19.0,85,0.00,,,0.00,Wunderground v.1.15,2013-09-13 09:37:00,
2013-09-13 04:42:00,51.0,46.6,30.13,NNW,347,4.0,19.0,85,0.00,,,0.00,Wunderground v.1.15,2013-09-13 09:42:00,
2013-09-13 04:47:00,50.5,46.8,30.13,NNW,336,4.0,19.0,87,0.00,,,0.00,Wunderground v.1.15,2013-09-13 09:47:00,
2013-09-13 04:52:00,50.2,46.8,30.13,North,360,4.0,19.0,88,0.00,,,0.00,Wunderground v.1.15,2013-09-13 09:52:00,
2013-09-13 04:57:00,50.0,46.6,30.13,North,360,4.0,19.0,88,0.00,,,0.00,Wunderground v.1.15,2013-09-13 09:57:00,
2013-09-13 05:02:00,49.8,46.7,30.14,North,360,3.0,19.0,89,0.00,,,0.00,Wunderground v.1.15,2013-09-13 10:02:00,
2013-09-13 05:07:00,49.6,46.8,30.14,North,360,3.0,20.0,90,0.00,,,0.00,Wunderground v.1.15,2013-09-13 10:07:00,
2013-09-13 05:12:00,49.5,46.7,30.14,North,5,4.0,20.0,90,0.00,,,0.00,Wunderground v.1.15,2013-09-13 10:12:00,
2013-09-13 05:17:00,49.5,47.0,30.14,North,360,5.0,20.0,91,0.00,,,0.00,Wunderground v.1.15,2013-09-13 10:17:00,
2013-09-13 05:22:00,49.3,46.8,30.14,NNE,13,5.0,20.0,91,0.00,,,0.00,Wunderground v.1.15,2013-09-13 10:22:00,
2013-09-13 05:27:00,49.4,46.6,30.15,North,360,5.0,20.0,90,0.00,,,0.00,Wunderground v.1.15,2013-09-13 10:27:00,
2013-09-13 05:32:00,49.2,46.4,30.14,North,355,3.0,21.0,90,0.00,,,0.00,Wunderground v.1.15,2013-09-13 10:32:00,
2013-09-13 05:37:00,48.9,46.1,30.15,North,355,3.0,21.0,90,0.00,,,0.00,Wunderground v.1.15,2013-09-13 10:37:00,
2013-09-13 05:42:00,48.8,46.0,30.14,North,360,3.0,21.0,90,0.00,,,0.00,Wunderground v.1.15,2013-09-13 10:42:00,
2013-09-13 05:47:00,48.7,45.9,30.15,North,360,4.0,21.0,90,0.00,,,0.00,Wunderground v.1.15,2013-09-13 10:47:00,
2013-09-13 05:52:00,48.7,45.9,30.15,North,5,4.0,21.0,90,0.00,,,0.00,Wunderground v.1.15,2013-09-13 10:52:00,
2013-09-13 05:57:00,48.5,45.7,30.15,NNE,24,4.0,21.0,90,0.00,,,0.00,Wunderground v.1.15,2013-09-13 10:57:00,
2013-09-13 06:02:00,48.3,45.5,30.15,NNE,20,4.0,21.0,90,0.00,,,0.00,Wunderground v.1.15,2013-09-13 11:02:00,
2013-09-13 06:07:00,48.2,45.4,30.15,NNE,23,4.0,21.0,90,0.00,,,0.00,Wunderground v.1.15,2013-09-13 11:07:00,
2013-09-13 06:12:00,48.1,45.3,30.15,North,5,5.0,21.0,90,0.00,,,0.00,Wunderground v.1.15,2013-09-13 11:12:00,
2013-09-13 06:17:00,48.1,45.3,30.15,NNE,14,5.0,21.0,90,0.00,,,0.00,Wunderground v.1.15,2013-09-13 11:17:00,
2013-09-13 06:22:00,48.0,45.2,30.16,North,10,5.0,21.0,90,0.00,,,0.00,Wunderground v.1.15,2013-09-13 11:22:00,
2013-09-13 06:27:00,47.9,45.1,30.16,North,5,5.0,21.0,90,0.00,,,0.00,Wunderground v.1.15,2013-09-13 11:27:00,
2013-09-13 06:32:00,47.8,45.0,30.16,North,5,5.0,21.0,90,0.00,,,0.00,Wunderground v.1.15,2013-09-13 11:32:00,
2013-09-13 06:37:00,47.7,44.9,30.16,North,5,5.0,21.0,90,0.00,,,0.00,Wunderground v.1.15,2013-09-13 11:37:00,
2013-09-13 06:42:00,47.5,44.7,30.16,North,5,5.0,21.0,90,0.00,,,0.00,Wunderground v.1.15,2013-09-13 11:42:00,
2013-09-13 06:47:00,47.5,44.7,30.17,North,360,5.0,21.0,90,0.00,,,0.00,Wunderground v.1.15,2013-09-13 11:47:00,
2013-09-13 06:52:00,47.7,45.2,30.17,North,5,5.0,21.0,91,0.00,,,0.00,Wunderground v.1.15,2013-09-13 11:52:00,
2013-09-13 06:57:00,47.8,45.0,30.17,North,5,5.0,21.0,90,0.00,,,0.00,Wunderground v.1.15,2013-09-13 11:57:00,
2013-09-13 07:02:00,48.0,44.9,30.17,NNE,22,5.0,21.0,89,0.00,,,0.00,Wunderground v.1.15,2013-09-13 12:02:00,
2013-09-13 07:07:00,48.2,44.8,30.17,NE,36,6.0,21.0,88,0.00,,,0.00,Wunderground v.1.15,2013-09-13 12:07:00,
2013-09-13 07:12:00,48.6,45.2,30.17,NE,34,7.0,21.0,88,0.00,,,0.00,Wunderground v.1.15,2013-09-13 12:12:00,
2013-09-13 07:17:00,49.0,45.3,30.17,NNE,18,7.0,21.0,87,0.00,,,0.00,Wunderground v.1.15,2013-09-13 12:17:00,
2013-09-13 07:22:00,49.3,45.3,30.17,NNE,24,6.0,19.0,86,0.00,,,0.00,Wunderground v.1.15,2013-09-13 12:22:00,
2013-09-13 07:27:00,49.5,45.5,30.17,NNE,15,5.0,19.0,86,0.00,,,0.00,Wunderground v.1.15,2013-09-13 12:27:00,
2013-09-13 07:32:00,49.8,45.5,30.18,North,5,5.0,19.0,85,0.00,,,0.00,Wunderground v.1.15,2013-09-13 12:32:00,
2013-09-13 07:37:00,50.0,45.7,30.18,North,355,5.0,19.0,85,0.00,,,0.00,Wunderground v.1.15,2013-09-13 12:37:00,
2013-09-13 07:42:00,50.3,46.0,30.17,North,360,6.0,19.0,85,0.00,,,0.00,Wunderground v.1.15,2013-09-13 12:42:00,
2013-09-13 07:47:00,50.4,45.7,30.18,NNE,22,6.0,19.0,84,0.00,,,0.00,Wunderground v.1.15,2013-09-13 12:47:00,
2013-09-13 07:52:00,50.7,46.0,30.18,NNW,342,6.0,22.0,84,0.00,,,0.00,Wunderground v.1.15,2013-09-13 12:52:00,
2013-09-13 07:57:00,51.0,46.0,30.18,North,5,6.0,22.0,83,0.00,,,0.00,Wunderground v.1.15,2013-09-13 12:57:00,
2013-09-13 08:02:00,51.1,46.1,30.18,NNE,26,6.0,15.0,83,0.00,,,0.00,Wunderground v.1.15,2013-09-13 13:02:00,
2013-09-13 08:07:00,51.3,46.0,30.18,North,5,7.0,15.0,82,0.00,,,0.00,Wunderground v.1.15,2013-09-13 13:07:00,
2013-09-13 08:12:00,51.6,46.3,30.18,NNE,29,7.0,15.0,82,0.00,,,0.00,Wunderground v.1.15,2013-09-13 13:12:00,
2013-09-13 08:17:00,52.1,46.4,30.18,NNE,15,7.0,15.0,81,0.00,,,0.00,Wunderground v.1.15,2013-09-13 13:17:00,
2013-09-13 08:22:00,52.5,46.5,30.18,North,360,6.0,18.0,80,0.00,,,0.00,Wunderground v.1.15,2013-09-13 13:22:00,
2013-09-13 08:27:00,52.8,46.5,30.18,NNE,19,7.0,18.0,79,0.00,,,0.00,Wunderground v.1.15,2013-09-13 13:27:00,
2013-09-13 08:32:00,53.1,46.1,30.18,NNE,26,9.0,18.0,77,0.00,,,0.00,Wunderground v.1.15,2013-09-13 13:32:00,
2013-09-13 08:37:00,53.2,45.5,30.18,NE,54,10.0,18.0,75,0.00,,,0.00,Wunderground v.1.15,2013-09-13 13:37:00,
2013-09-13 08:42:00,53.5,45.4,30.18,NE,38,10.0,18.0,74,0.00,,,0.00,Wunderground v.1.15,2013-09-13 13:42:00,
2013-09-13 08:47:00,53.7,45.2,30.18,NNE,18,11.0,18.0,73,0.00,,,0.00,Wunderground v.1.15,2013-09-13 13:47:00,
2013-09-13 08:52:00,54.2,45.4,30.18,NNE,32,11.0,18.0,72,0.00,,,0.00,Wunderground v.1.15,2013-09-13 13:52:00,
2013-09-13 08:57:00,54.7,45.5,30.18,NE,34,11.0,18.0,71,0.00,,,0.00,Wunderground v.1.15,2013-09-13 13:57:00,
2013-09-13 09:02:00,54.7,45.1,30.19,NNE,32,11.0,17.0,70,0.00,,,0.00,Wunderground v.1.15,2013-09-13 14:02:00,
2013-09-13 09:07:00,54.5,44.5,30.19,NNE,12,12.0,18.0,69,0.00,,,0.00,Wunderground v.1.15,2013-09-13 14:07:00,
2013-09-13 09:12:00,54.7,44.7,30.19,NNE,29,12.0,15.0,69,0.00,,,0.00,Wunderground v.1.15,2013-09-13 14:12:00,
2013-09-13 09:17:00,54.9,44.9,30.19,NE,40,12.0,18.0,69,0.00,,,0.00,Wunderground v.1.15,2013-09-13 14:17:00,
2013-09-13 09:22:00,55.3,45.3,30.19,NNE,19,13.0,16.0,69,0.00,,,0.00,Wunderground v.1.15,2013-09-13 14:22:00,
2013-09-13 09:27:00,55.5,45.5,30.19,NNE,33,12.0,17.0,69,0.00,,,0.00,Wunderground v.1.15,2013-09-13 14:27:00,
2013-09-13 09:32:00,55.5,44.3,30.19,NE,49,13.0,19.0,66,0.00,,,0.00,Wunderground v.1.15,2013-09-13 14:32:00,
2013-09-13 09:37:00,55.6,44.4,30.19,NNE,22,15.0,21.0,66,0.00,,,0.00,Wunderground v.1.15,2013-09-13 14:37:00,
2013-09-13 09:42:00,55.9,44.7,30.20,NNE,29,13.0,17.0,66,0.00,,,0.00,Wunderground v.1.15,2013-09-13 14:42:00,
2013-09-13 09:47:00,56.0,44.8,30.20,NNE,18,11.0,17.0,66,0.00,,,0.00,Wunderground v.1.15,2013-09-13 14:47:00,
2013-09-13 09:52:00,56.5,44.9,30.20,North,360,10.0,14.0,65,0.00,,,0.00,Wunderground v.1.15,2013-09-13 14:52:00,
2013-09-13 09:57:00,56.4,44.8,30.20,NNE,25,10.0,16.0,65,0.00,,,0.00,Wunderground v.1.15,2013-09-13 14:57:00,
2013-09-13 10:02:00,56.7,45.1,30.20,NNE,13,10.0,11.0,65,0.00,,,0.00,Wunderground v.1.15,2013-09-13 15:02:00,
2013-09-13 10:07:00,57.0,44.9,30.20,NE,36,10.0,15.0,64,0.00,,,0.00,Wunderground v.1.15,2013-09-13 15:07:00,
2013-09-13 10:12:00,57.4,44.1,30.20,NNE,22,10.0,15.0,61,0.00,,,0.00,Wunderground v.1.15,2013-09-13 15:12:00,
2013-09-13 10:17:00,57.9,44.1,30.20,NNW,348,11.0,17.0,60,0.00,,,0.00,Wunderground v.1.15,2013-09-13 15:17:00,
2013-09-13 10:22:00,58.1,43.8,30.20,NNE,33,10.0,14.0,59,0.00,,,0.00,Wunderground v.1.15,2013-09-13 15:22:00,
2013-09-13 10:27:00,58.4,45.0,30.19,NNW,333,9.0,15.0,61,0.00,,,0.00,Wunderground v.1.15,2013-09-13 15:27:00,
2013-09-13 10:32:00,58.9,45.0,30.19,NNE,25,9.0,11.0,60,0.00,,,0.00,Wunderground v.1.15,2013-09-13 15:32:00,
2013-09-13 10:37:00,58.4,44.1,30.19,NNW,336,10.0,17.0,59,0.00,,,0.00,Wunderground v.1.15,2013-09-13 15:37:00,
2013-09-13 10:42:00,58.4,45.0,30.20,NNE,14,11.0,16.0,61,0.00,,,0.00,Wunderground v.1.15,2013-09-13 15:42:00,
2013-09-13 10:47:00,58.7,44.0,30.19,North,5,11.0,16.0,58,0.00,,,0.00,Wunderground v.1.15,2013-09-13 15:47:00,
2013-09-13 10:52:00,58.9,43.7,30.19,North,10,10.0,16.0,57,0.00,,,0.00,Wunderground v.1.15,2013-09-13 15:52:00,
2013-09-13 10:57:00,59.0,44.2,30.19,North,11,11.0,19.0,58,0.00,,,0.00,Wunderground v.1.15,2013-09-13 15:57:00,
2013-09-13 11:02:00,59.3,44.5,30.19,NNE,26,11.0,12.0,58,0.00,,,0.00,Wunderground v.1.15,2013-09-13 16:02:00,
2013-09-13 11:07:00,59.9,44.2,30.19,NNE,18,10.0,14.0,56,0.00,,,0.00,Wunderground v.1.15,2013-09-13 16:07:00,
2013-09-13 11:12:00,60.1,43.9,30.19,NE,36,9.0,18.0,55,0.00,,,0.00,Wunderground v.1.15,2013-09-13 16:12:00,
2013-09-13 11:17:00,60.4,43.7,30.19,North,360,9.0,18.0,54,0.00,,,0.00,Wunderground v.1.15,2013-09-13 16:17:00,
2013-09-13 11:22:00,60.7,44.4,30.19,NNE,20,10.0,15.0,55,0.00,,,0.00,Wunderground v.1.15,2013-09-13 16:22:00,
2013-09-13 11:27:00,60.7,43.5,30.19,NE,51,9.0,15.0,53,0.00,,,0.00,Wunderground v.1.15,2013-09-13 16:27:00,
2013-09-13 11:32:00,60.8,44.0,30.19,NNW,346,9.0,15.0,54,0.00,,,0.00,Wunderground v.1.15,2013-09-13 16:32:00,
2013-09-13 11:37:00,61.1,44.3,30.19,NNW,338,9.0,15.0,54,0.00,,,0.00,Wunderground v.1.15,2013-09-13 16:37:00,
2013-09-13 11:42:00,61.4,44.1,30.19,NNE,13,8.0,9.0,53,0.00,,,0.00,Wunderground v.1.15,2013-09-13 16:42:00,
2013-09-13 11:47:00,61.6,42.8,30.18,NNW,336,8.0,14.0,50,0.00,,,0.00,Wunderground v.1.15,2013-09-13 16:47:00,
2013-09-13 11:52:00,61.6,42.2,30.18,North,355,9.0,12.0,49,0.00,,,0.00,Wunderground v.1.15,2013-09-13 16:52:00,
2013-09-13 11:57:00,61.7,42.9,30.18,NNE,15,8.0,14.0,50,0.00,,,0.00,Wunderground v.1.15,2013-09-13 16:57:00,
2013-09-13 12:02:00,62.1,41.1,30.18,NE,53,9.0,15.0,46,0.00,,,0.00,Wunderground v.1.15,2013-09-13 17:02:00,
2013-09-13 12:07:00,62.5,41.4,30.18,NNW,341,10.0,15.0,46,0.00,,,0.00,Wunderground v.1.15,2013-09-13 17:07:00,
2013-09-13 12:12:00,62.5,42.0,30.18,NNE,21,9.0,13.0,47,0.00,,,0.00,Wunderground v.1.15,2013-09-13 17:12:00,
2013-09-13 12:17:00,62.4,42.4,30.18,NE,56,9.0,15.0,48,0.00,,,0.00,Wunderground v.1.15,2013-09-13 17:17:00,
2013-09-13 12:22:00,62.5,43.1,30.18,NNW,331,7.0,11.0,49,0.00,,,0.00,Wunderground v.1.15,2013-09-13 17:22:00,
2013-09-13 12:27:00,62.7,42.2,30.18,NNE,28,7.0,14.0,47,0.00,,,0.00,Wunderground v.1.15,2013-09-13 17:27:00,
2013-09-13 12:32:00,63.0,41.3,30.18,NNE,32,10.0,15.0,45,0.00,,,0.00,Wunderground v.1.15,2013-09-13 17:32:00,
2013-09-13 12:37:00,63.1,42.0,30.17,North,355,9.0,15.0,46,0.00,,,0.00,Wunderground v.1.15,2013-09-13 17:37:00,
2013-09-13 12:42:00,63.4,41.1,30.17,NNW,327,8.0,13.0,44,0.00,,,0.00,Wunderground v.1.15,2013-09-13 17:42:00,
2013-09-13 12:47:00,63.9,42.1,30.17,NE,38,8.0,13.0,45,0.00,,,0.00,Wunderground v.1.15,2013-09-13 17:47:00,
2013-09-13 12:52:00,64.1,42.9,30.17,NNE,12,7.0,14.0,46,0.00,,,0.00,Wunderground v.1.15,2013-09-13 17:52:00,
2013-09-13 12:57:00,64.3,43.1,30.16,NNE,28,7.0,16.0,46,0.00,,,0.00,Wunderground v.1.15,2013-09-13 17:57:00,
2013-09-13 13:02:00,64.8,41.2,30.17,NE,42,9.0,16.0,42,0.00,,,0.00,Wunderground v.1.15,2013-09-13 18:02:00,
2013-09-13 13:07:00,64.7,41.1,30.16,NE,46,10.0,16.0,42,0.00,,,0.00,Wunderground v.1.15,2013-09-13 18:07:00,
2013-09-13 13:12:00,65.0,42.5,30.16,North,5,7.0,9.0,44,0.00,,,0.00,Wunderground v.1.15,2013-09-13 18:12:00,
2013-09-13 13:17:00,65.7,41.3,30.16,North,5,6.0,12.0,41,0.00,,,0.00,Wunderground v.1.15,2013-09-13 18:17:00,
2013-09-13 13:22:00,65.5,40.5,30.16,ENE,62,7.0,11.0,40,0.00,,,0.00,Wunderground v.1.15,2013-09-13 18:22:00,
2013-09-13 13:27:00,65.2,41.5,30.16,NNE,13,8.0,14.0,42,0.00,,,0.00,Wunderground v.1.15,2013-09-13 18:27:00,
2013-09-13 13:32:00,65.4,40.4,30.16,NNW,338,9.0,12.0,40,0.00,,,0.00,Wunderground v.1.15,2013-09-13 18:32:00,
2013-09-13 13:37:00,65.8,41.4,30.15,NNE,19,7.0,14.0,41,0.00,,,0.00,Wunderground v.1.15,2013-09-13 18:37:00,
2013-09-13 13:42:00,66.3,40.6,30.15,NE,42,8.0,13.0,39,0.00,,,0.00,Wunderground v.1.15,2013-09-13 18:42:00,
2013-09-13 13:47:00,66.4,41.3,30.15,NNW,334,8.0,13.0,40,0.00,,,0.00,Wunderground v.1.15,2013-09-13 18:47:00,
2013-09-13 13:52:00,66.8,43.0,30.15,North,5,7.0,16.0,42,0.00,,,0.00,Wunderground v.1.15,2013-09-13 18:52:00,
2013-09-13 13:57:00,66.6,41.5,30.15,NNE,24,9.0,16.0,40,0.00,,,0.00,Wunderground v.1.15,2013-09-13 18:57:00,
2013-09-13 14:02:00,65.9,40.2,30.15,NW,318,9.0,11.0,39,0.00,,,0.00,Wunderground v.1.15,2013-09-13 19:02:00,
2013-09-13 14:07:00,66.5,42.1,30.15,ENE,57,7.0,14.0,41,0.00,,,0.00,Wunderground v.1.15,2013-09-13 19:07:00,
2013-09-13 14:12:00,67.0,40.5,30.15,North,5,7.0,12.0,38,0.00,,,0.00,Wunderground v.1.15,2013-09-13 19:12:00,
2013-09-13 14:17:00,67.5,39.6,30.14,NE,36,8.0,15.0,36,0.00,,,0.00,Wunderground v.1.15,2013-09-13 19:17:00,
2013-09-13 14:22:00,67.3,39.4,30.14,NE,43,9.0,10.0,36,0.00,,,0.00,Wunderground v.1.15,2013-09-13 19:22:00,
2013-09-13 14:27:00,67.2,39.3,30.14,NW,306,5.0,10.0,36,0.00,,,0.00,Wunderground v.1.15,2013-09-13 19:27:00,
2013-09-13 14:32:00,67.2,38.6,30.14,NE,40,6.0,18.0,35,0.00,,,0.00,Wunderground v.1.15,2013-09-13 19:32:00,
2013-09-13 14:38:00,67.3,38.0,30.14,NNE,26,9.0,18.0,34,0.00,,,0.00,Wunderground v.1.15,2013-09-13 19:38:00,
2013-09-13 14:43:00,67.4,38.0,30.14,NNW,342,9.0,18.0,34,0.00,,,0.00,Wunderground v.1.15,2013-09-13 19:43:00,
2013-09-13 14:55:00,67.4,38.0,30.14,ENE,65,7.0,10.0,34,0.00,,,0.00,Wunderground v.1.15,2013-09-13 19:55:00,
2013-09-13 15:00:00,67.8,39.1,30.14,NNE,19,8.0,8.0,35,0.00,,,0.00,Wunderground v.1.15,2013-09-13 20:00:00,
2013-09-13 15:10:00,68.0,39.3,30.13,NE,54,8.0,8.0,35,0.00,,,0.00,Wunderground v.1.15,2013-09-13 20:10:00,
2013-09-13 15:20:00,68.3,37.3,30.13,North,5,9.0,9.0,32,0.00,,,0.00,Wunderground v.1.15,2013-09-13 20:20:00,
2013-09-13 15:25:00,68.1,39.4,30.13,NW,311,7.0,9.0,35,0.00,,,0.00,Wunderground v.1.15,2013-09-13 20:25:00,
2013-09-13 15:35:00,68.0,38.6,30.13,North,355,5.0,8.0,34,0.00,,,0.00,Wunderground v.1.15,2013-09-13 20:35:00,
2013-09-13 15:40:00,68.2,38.0,30.12,ENE,57,7.0,7.0,33,0.00,,,0.00,Wunderground v.1.15,2013-09-13 20:40:00,
2013-09-13 15:45:00,68.0,39.3,30.12,NNW,343,7.0,7.0,35,0.00,,,0.00,Wunderground v.1.15,2013-09-13 20:45:00,
2013-09-13 15:50:00,68.2,39.5,30.12,North,5,5.0,7.0,35,0.00,,,0.00,Wunderground v.1.15,2013-09-13 20:50:00,
2013-09-13 15:55:00,68.3,39.6,30.12,ENE,59,7.0,9.0,35,0.00,,,0.00,Wunderground v.1.15,2013-09-13 20:55:00,
2013-09-13 16:00:00,68.4,40.4,30.12,NNE,19,8.0,8.0,36,0.00,,,0.00,Wunderground v.1.15,2013-09-13 21:00:00,
2013-09-13 16:10:00,68.1,39.4,30.12,NNW,329,6.0,8.0,35,0.00,,,0.00,Wunderground v.1.15,2013-09-13 21:10:00,
2013-09-13 16:15:00,68.2,38.7,30.12,NNE,14,6.0,10.0,34,0.00,,,0.00,Wunderground v.1.15,2013-09-13 21:15:00,
2013-09-13 16:20:00,68.0,38.6,30.12,NE,39,8.0,8.0,34,0.00,,,0.00,Wunderground v.1.15,2013-09-13 21:20:00,
2013-09-13 16:30:00,68.1,39.4,30.12,NE,34,6.0,10.0,35,0.00,,,0.00,Wunderground v.1.15,2013-09-13 21:30:00,
2013-09-13 16:35:00,68.0,40.0,30.12,NE,38,7.0,10.0,36,0.00,,,0.00,Wunderground v.1.15,2013-09-13 21:35:00,
2013-09-13 16:45:00,67.8,39.1,30.12,NNW,333,7.0,9.0,35,0.00,,,0.00,Wunderground v.1.15,2013-09-13 21:45:00,
2013-09-13 16:50:00,67.9,38.5,30.11,North,355,7.0,7.0,34,0.00,,,0.00,Wunderground v.1.15,2013-09-13 21:50:00,
2013-09-13 16:55:00,67.9,37.7,30.12,NNE,31,8.0,8.0,33,0.00,,,0.00,Wunderground v.1.15,2013-09-13 21:55:00,
2013-09-13 17:00:00,67.7,37.5,30.11,NE,46,8.0,8.0,33,0.00,,,0.00,Wunderground v.1.15,2013-09-13 22:00:00,
2013-09-13 17:10:00,67.4,38.8,30.11,NNW,342,7.0,7.0,35,0.00,,,0.00,Wunderground v.1.15,2013-09-13 22:10:00,
2013-09-13 17:15:00,67.5,39.6,30.11,NNW,336,8.0,9.0,36,0.00,,,0.00,Wunderground v.1.15,2013-09-13 22:15:00,
2013-09-13 17:20:00,67.5,40.3,30.11,NNE,18,5.0,6.0,37,0.00,,,0.00,Wunderground v.1.15,2013-09-13 22:20:00,
2013-09-13 17:26:00,67.4,38.8,30.11,North,360,6.0,13.0,35,0.00,,,0.00,Wunderground v.1.15,2013-09-13 22:26:00,
2013-09-13 17:31:00,67.1,39.2,30.11,NE,46,8.0,9.0,36,0.00,,,0.00,Wunderground v.1.15,2013-09-13 22:31:00,
2013-09-13 17:36:00,66.8,39.0,30.11,NNE,19,6.0,10.0,36,0.00,,,0.00,Wunderground v.1.15,2013-09-13 22:36:00,
2013-09-13 17:41:00,66.7,40.3,30.11,North,355,5.0,8.0,38,0.00,,,0.00,Wunderground v.1.15,2013-09-13 22:41:00,
2013-09-13 17:46:00,66.6,39.5,30.11,NE,47,4.0,11.0,37,0.00,,,0.00,Wunderground v.1.15,2013-09-13 22:46:00,
2013-09-13 17:51:00,66.5,38.7,30.11,NE,46,5.0,6.0,36,0.00,,,0.00,Wunderground v.1.15,2013-09-13 22:51:00,
2013-09-13 17:56:00,66.4,40.0,30.11,NE,44,4.0,7.0,38,0.00,,,0.00,Wunderground v.1.15,2013-09-13 22:56:00,
2013-09-13 18:01:00,66.2,40.5,30.11,North,11,6.0,9.0,39,0.00,,,0.00,Wunderground v.1.15,2013-09-13 23:01:00,
2013-09-13 18:06:00,66.0,39.0,30.11,NE,34,4.0,9.0,37,0.00,,,0.00,Wunderground v.1.15,2013-09-13 23:06:00,
2013-09-13 18:11:00,65.8,40.1,30.11,NNE,23,5.0,8.0,39,0.00,,,0.00,Wunderground v.1.15,2013-09-13 23:11:00,
2013-09-13 18:16:00,65.6,40.0,30.11,NNE,13,6.0,8.0,39,0.00,,,0.00,Wunderground v.1.15,2013-09-13 23:16:00,
2013-09-13 18:21:00,65.3,41.0,30.11,NNE,12,9.0,10.0,41,0.00,,,0.00,Wunderground v.1.15,2013-09-13 23:21:00,
2013-09-13 18:26:00,65.1,40.8,30.11,North,355,5.0,10.0,41,0.00,,,0.00,Wunderground v.1.15,2013-09-13 23:26:00,
2013-09-13 18:31:00,64.8,41.8,30.11,NNW,342,5.0,5.0,43,0.00,,,0.00,Wunderground v.1.15,2013-09-13 23:31:00,
2013-09-13 18:36:00,64.4,42.0,30.11,NNW,347,2.0,6.0,44,0.00,,,0.00,Wunderground v.1.15,2013-09-13 23:36:00,
2013-09-13 18:41:00,64.2,41.8,30.11,NNW,342,4.0,6.0,44,0.00,,,0.00,Wunderground v.1.15,2013-09-13 23:41:00,
2013-09-13 18:46:00,63.8,42.0,30.11,NNW,346,3.0,6.0,45,0.00,,,0.00,Wunderground v.1.15,2013-09-13 23:46:00,
2013-09-13 18:51:00,63.3,41.6,30.11,North,350,3.0,4.0,45,0.00,,,0.00,Wunderground v.1.15,2013-09-13 23:51:00,
2013-09-13 18:56:00,62.9,41.8,30.11,North,350,3.0,4.0,46,0.00,,,0.00,Wunderground v.1.15,2013-09-13 23:56:00,
2013-09-13 19:01:00,62.4,41.9,30.11,North,349,2.0,3.0,47,0.00,,,0.00,Wunderground v.1.15,2013-09-14 00:01:00,
2013-09-13 19:06:00,61.7,41.8,30.11,North,350,3.0,5.0,48,0.00,,,0.00,Wunderground v.1.15,2013-09-14 00:06:00,
2013-09-13 19:11:00,61.1,41.8,30.11,North,350,3.0,4.0,49,0.00,,,0.00,Wunderground v.1.15,2013-09-14 00:11:00,
2013-09-13 19:16:00,60.5,41.8,30.11,North,350,4.0,5.0,50,0.00,,,0.00,Wunderground v.1.15,2013-09-14 00:16:00,
2013-09-13 19:22:00,60.0,41.8,30.11,North,355,5.0,5.0,51,0.00,,,0.00,Wunderground v.1.15,2013-09-14 00:22:00,
2013-09-13 19:26:00,59.6,41.9,30.11,NNW,346,3.0,5.0,52,0.00,,,0.00,Wunderground v.1.15,2013-09-14 00:26:00,
2013-09-13 19:32:00,59.4,42.3,30.11,NNW,346,3.0,4.0,53,0.00,,,0.00,Wunderground v.1.15,2013-09-14 00:32:00,
2013-09-13 19:37:00,59.0,41.9,30.11,North,355,4.0,4.0,53,0.00,,,0.00,Wunderground v.1.15,2013-09-14 00:37:00,
2013-09-13 19:42:00,58.7,41.6,30.11,North,355,4.0,5.0,53,0.00,,,0.00,Wunderground v.1.15,2013-09-14 00:42:00,
2013-09-13 19:47:00,58.4,41.3,30.11,North,355,3.0,5.0,53,0.00,,,0.00,Wunderground v.1.15,2013-09-14 00:47:00,
2013-09-13 19:52:00,58.1,41.5,30.11,North,355,5.0,5.0,54,0.00,,,0.00,Wunderground v.1.15,2013-09-14 00:52:00,
2013-09-13 19:57:00,57.7,41.2,30.12,North,9,5.0,6.0,54,0.00,,,0.00,Wunderground v.1.15,2013-09-14 00:57:00,
2013-09-13 20:02:00,57.5,41.4,30.12,North,5,4.0,5.0,55,0.00,,,0.00,Wunderground v.1.15,2013-09-14 01:02:00,
2013-09-13 20:07:00,57.2,41.2,30.12,North,9,3.0,5.0,55,0.00,,,0.00,Wunderground v.1.15,2013-09-14 01:07:00,
2013-09-13 20:12:00,57.0,41.0,30.12,North,5,3.0,5.0,55,0.00,,,0.00,Wunderground v.1.15,2013-09-14 01:12:00,
2013-09-13 20:17:00,56.9,41.4,30.12,North,5,4.0,5.0,56,0.00,,,0.00,Wunderground v.1.15,2013-09-14 01:17:00,
2013-09-13 20:22:00,56.8,41.3,30.12,North,5,5.0,5.0,56,0.00,,,0.00,Wunderground v.1.15,2013-09-14 01:22:00,
2013-09-13 20:27:00,56.7,41.2,30.12,North,5,4.0,5.0,56,0.00,,,0.00,Wunderground v.1.15,2013-09-14 01:27:00,
2013-09-13 20:32:00,56.5,41.0,30.12,North,5,4.0,6.0,56,0.00,,,0.00,Wunderground v.1.15,2013-09-14 01:32:00,
2013-09-13 20:37:00,56.3,40.8,30.13,North,5,3.0,6.0,56,0.00,,,0.00,Wunderground v.1.15,2013-09-14 01:37:00,
2013-09-13 20:42:00,56.2,40.7,30.13,North,5,4.0,5.0,56,0.00,,,0.00,Wunderground v.1.15,2013-09-14 01:42:00,
2013-09-13 20:47:00,56.2,41.2,30.13,NNE,13,6.0,7.0,57,0.00,,,0.00,Wunderground v.1.15,2013-09-14 01:47:00,
2013-09-13 20:52:00,56.0,41.0,30.13,NNE,14,5.0,5.0,57,0.00,,,0.00,Wunderground v.1.15,2013-09-14 01:52:00,
2013-09-13 20:57:00,55.8,41.2,30.13,NNE,18,3.0,6.0,58,0.00,,,0.00,Wunderground v.1.15,2013-09-14 01:57:00,
2013-09-13 21:02:00,55.6,41.0,30.13,NNE,18,3.0,4.0,58,0.00,,,0.00,Wunderground v.1.15,2013-09-14 02:02:00,
2013-09-13 21:07:00,55.4,40.9,30.13,NNE,18,4.0,5.0,58,0.00,,,0.00,Wunderground v.1.15,2013-09-14 02:07:00,
2013-09-13 21:12:00,55.4,41.3,30.13,NNE,18,4.0,5.0,59,0.00,,,0.00,Wunderground v.1.15,2013-09-14 02:12:00,
2013-09-13 21:17:00,55.3,41.2,30.13,NNE,18,3.0,5.0,59,0.00,,,0.00,Wunderground v.1.15,2013-09-14 02:17:00,
2013-09-13 21:22:00,55.1,41.5,30.13,NNE,18,4.0,4.0,60,0.00,,,0.00,Wunderground v.1.15,2013-09-14 02:22:00,
2013-09-13 21:27:00,54.9,41.7,30.13,NNE,18,2.0,5.0,61,0.00,,,0.00,Wunderground v.1.15,2013-09-14 02:27:00,
2013-09-13 21:32:00,54.7,41.5,30.13,NNE,18,2.0,3.0,61,0.00,,,0.00,Wunderground v.1.15,2013-09-14 02:32:00,
2013-09-13 21:37:00,54.4,41.6,30.13,NNE,18,3.0,4.0,62,0.00,,,0.00,Wunderground v.1.15,2013-09-14 02:37:00,
2013-09-13 21:42:00,54.2,41.9,30.13,NNE,18,3.0,4.0,63,0.00,,,0.00,Wunderground v.1.15,2013-09-14 02:42:00,
2013-09-13 21:47:00,54.1,42.2,30.13,NNE,18,3.0,4.0,64,0.00,,,0.00,Wunderground v.1.15,2013-09-14 02:47:00,
2013-09-13 21:52:00,54.1,42.2,30.13,NNE,18,4.0,5.0,64,0.00,,,0.00,Wunderground v.1.15,2013-09-14 02:52:00,
2013-09-13 21:57:00,53.9,42.0,30.13,NNE,18,4.0,5.0,64,0.00,,,0.00,Wunderground v.1.15,2013-09-14 02:57:00,
2013-09-13 22:02:00,53.7,41.8,30.13,NNE,18,3.0,4.0,64,0.00,,,0.00,Wunderground v.1.15,2013-09-14 03:02:00,
2013-09-13 22:07:00,53.7,41.8,30.13,NNE,22,3.0,4.0,64,0.00,,,0.00,Wunderground v.1.15,2013-09-14 03:07:00,
2013-09-13 22:13:00,53.6,41.7,30.13,NNE,22,3.0,4.0,64,0.00,,,0.00,Wunderground v.1.15,2013-09-14 03:13:00,
2013-09-13 22:18:00,53.6,41.7,30.13,NNE,22,3.0,5.0,64,0.00,,,0.00,Wunderground v.1.15,2013-09-14 03:18:00,
2013-09-13 22:23:00,53.7,41.8,30.13,NNE,22,2.0,3.0,64,0.00,,,0.00,Wunderground v.1.15,2013-09-14 03:23:00,
2013-09-13 22:28:00,53.7,41.8,30.13,NE,34,4.0,5.0,64,0.00,,,0.00,Wunderground v.1.15,2013-09-14 03:28:00,
2013-09-13 22:33:00,53.7,41.8,30.13,NNE,31,4.0,4.0,64,0.00,,,0.00,Wunderground v.1.15,2013-09-14 03:33:00,
2013-09-13 22:38:00,53.7,41.8,30.13,NE,54,4.0,7.0,64,0.00,,,0.00,Wunderground v.1.15,2013-09-14 03:38:00,
2013-09-13 22:43:00,53.3,41.8,30.13,NE,51,5.0,6.0,65,0.00,,,0.00,Wunderground v.1.15,2013-09-14 03:43:00,
2013-09-13 22:48:00,53.0,42.3,30.13,ENE,58,4.0,6.0,67,0.00,,,0.00,Wunderground v.1.15,2013-09-14 03:48:00,
2013-09-13 22:53:00,52.9,42.2,30.13,NE,55,3.0,8.0,67,0.00,,,0.00,Wunderground v.1.15,2013-09-14 03:53:00,
2013-09-13 22:59:00,52.7,42.8,30.14,ENE,59,3.0,8.0,69,0.00,,,0.00,Wunderground v.1.15,2013-09-14 03:59:00,
2013-09-13 23:01:00,52.7,42.8,30.14,NE,55,5.0,5.0,69,0.00,,,0.00,Wunderground v.1.15,2013-09-14 04:01:00,
2013-09-13 23:02:00,52.7,42.8,30.14,NE,56,4.0,6.0,69,0.00,,,0.00,Wunderground v.1.15,2013-09-14 04:02:00,
2013-09-13 23:07:00,52.7,43.2,30.14,ENE,64,5.0,9.0,70,0.00,,,0.00,Wunderground v.1.15,2013-09-14 04:07:00,
2013-09-13 23:12:00,52.6,43.5,30.13,ENE,72,5.0,8.0,71,0.00,,,0.00,Wunderground v.1.15,2013-09-14 04:12:00,
2013-09-13 23:17:00,52.4,43.3,30.13,ENE,69,3.0,8.0,71,0.00,,,0.00,Wunderground v.1.15,2013-09-14 04:17:00,
2013-09-13 23:22:00,52.1,43.3,30.14,ENE,71,4.0,5.0,72,0.00,,,0.00,Wunderground v.1.15,2013-09-14 04:22:00,
2013-09-13 23:27:00,51.9,43.5,30.14,ENE,60,5.0,8.0,73,0.00,,,0.00,Wunderground v.1.15,2013-09-14 04:27:00,
2013-09-13 23:32:00,51.7,43.3,30.14,ENE,78,3.0,7.0,73,0.00,,,0.00,Wunderground v.1.15,2013-09-14 04:32:00,
2013-09-13 23:37:00,51.4,43.4,30.14,East,82,5.0,7.0,74,0.00,,,0.00,Wunderground v.1.15,2013-09-14 04:37:00,
2013-09-13 23:42:00,51.3,43.6,30.13,East,79,3.0,6.0,75,0.00,,,0.00,Wunderground v.1.15,2013-09-14 04:42:00,
2013-09-13 23:48:00,51.2,43.5,30.13,East,90,7.0,7.0,75,0.00,,,0.00,Wunderground v.1.15,2013-09-14 04:48:00,
2013-09-13 23:53:00,51.1,43.8,30.13,ENE,72,4.0,7.0,76,0.00,,,0.00,Wunderground v.1.15,2013-09-14 04:53:00,
2013-09-13 23:58:00,51.0,44.0,30.14,ENE,72,3.0,7.0,77,0.00,,,0.00,Wunderground v.1.15,2013-09-14 04:58:00,